Regional Weather Roundup
Issued by NWS

Home | Current Version | Previous Version | Graphics & Text | Print | Product List | Glossary Off
Versions: 1 2 3 4 5 6 7 8 9 10 11 12 13 14 15 16 17 18 19 20 21 22 23 24 25 26 27 28 29 30 31 32 33 34 35 36 37 38 39 40 41 42 43 44 45 46 47 48 49 50

000
ASUS43 KTOP 161759
RWRKS

WEATHER ROUNDUP FOR KANSAS
NATIONAL WEATHER SERVICE GOODLAND KS
1200 PM CST TUE JAN 16 2018

NOTE:  "FAIR" INDICATES FEW OR NO CLOUDS BELOW 12,000 FEET WITH NO
SIGNIFICANT WEATHER AND/OR OBSTRUCTIONS TO VISIBILITY.

KSZ001>006-013>018-027>032-041>047-161900-
NORTHWEST KANSAS

CITY           SKY/WX    TMP DP  RH WIND       PRES   REMARKS
GOODLAND       SUNNY     13   1  59 NW7       30.59F
6HR MIN TEMP:  -7; 6HR MAX TEMP:  13;

HAYS           SUNNY     11   2  67 NW14      30.75F WCI  -5
HILL CITY      SUNNY     11  -1  58 N9        30.74F
6HR MIN TEMP:  -3; 6HR MAX TEMP:  11;

RUSSELL        SUNNY    N/A N/A N/A NW12      30.75F
$$

KSZ061>065-074>080-084>089-161900-
SOUTHWEST KANSAS

CITY           SKY/WX    TMP DP  RH WIND       PRES   REMARKS
DODGE CITY     SUNNY     12  -4  48 N10G22    30.71F WCI  -1
6HR MIN TEMP:  -3; 6HR MAX TEMP:  12;

GARDEN CITY    SUNNY     12  -8  40 N10       30.69F WCI  -1
6HR MIN TEMP:  -4; 6HR MAX TEMP:  12;

GREAT BEND     SUNNY     10   1  67 NW13      30.76F WCI  -5
LIBERAL        SUNNY     16  -4  41 N10       30.70F WCI   4
$$

KSZ066>073-081>083-090>101-161900-
SOUTHEAST KANSAS

CITY           SKY/WX    TMP DP  RH WIND       PRES   REMARKS
CHANUTE        PTSUNNY    7  -2  66 NW9       30.80F
6HR MIN TEMP:   0; 6HR MAX TEMP:   7;

COFFEYVILLE    MOSUNNY    8  -1  66 NW10      30.85F WCI  -6
6HR MIN TEMP:   0; 6HR MAX TEMP:   8;

HUTCHINSON     SUNNY      9   1  70 NW10      30.78F WCI  -5
6HR MIN TEMP:  -1; 6HR MAX TEMP:   9;

NEWTON         MOSUNNY   10   1  67 NW16      30.78F WCI  -7
PARSONS        MOSUNNY    8   0  69 NW9       30.83F
6HR MIN TEMP:  -3; 6HR MAX TEMP:   9;

WICHITA INTL   MOSUNNY   10   0  63 N10       30.80F WCI  -4
6HR MIN TEMP:   3; 6HR MAX TEMP:  10;

WICHITA JABRA  SUNNY      8   1  73 NW14      30.78F WCI  -8
6HR MIN TEMP:   1; 6HR MAX TEMP:   8;

WICHITA MCCONL SUNNY      8  -1  65 NW10      30.78F WCI  -6
WINFIELD       SUNNY     11   2  67 N12       30.82F WCI  -3
6HR MIN TEMP:   0; 6HR MAX TEMP:  11;

$$

KSZ007>012-019>026-033>040-048>060-102>105-161900-
NORTHEAST KANSAS

CITY           SKY/WX    TMP DP  RH WIND       PRES   REMARKS
CONCORDIA      SUNNY      8   1  73 N12       30.76F WCI  -7
6HR MIN TEMP:  -3; 6HR MAX TEMP:   8;

EMPORIA        PTSUNNY    6  -2  69 NW13      30.78F WCI -10
6HR MIN TEMP:  -1; 6HR MAX TEMP:   6;

LAWRENCE       SUNNY      9  -1  64 W12       30.79F WCI  -6
6HR MIN TEMP:  -7; 6HR MAX TEMP:   9;

MANHATTAN      SUNNY      9  -3  58 W8        30.81F
6HR MIN TEMP:  -1; 6HR MAX TEMP:   9; 6HR PCP: TRACE;

OLATHE IND     SUNNY      6  -1  73 NW10      30.76F WCI  -9
6HR MIN TEMP:  -5; 6HR MAX TEMP:   6; 6HR PCP: TRACE;

OLATHE EXE     MOSUNNY    4  -3  73 NW12      30.75S WCI -12
6HR MIN TEMP:  -4; 6HR MAX TEMP:   4;

SALINA         SUNNY      9   0  67 NW8       30.81F
6HR MIN TEMP:   1; 6HR MAX TEMP:   9;

TOPEKA BILLARD SUNNY      9  -1  64 NW9       30.80F
6HR MIN TEMP:  -3; 6HR MAX TEMP:   9;

TOPEKA FORBES  SUNNY      7  -2  66 NW13      30.77F WCI  -9
6HR MIN TEMP:  -2; 6HR MAX TEMP:   7;

$$




USA.gov is the U.S. government's official web portal to all federal, state and local government web resources and services.